Regional Weather Roundup
Issued by NWS Sioux Falls, SD

Home | Current Version | Previous Version | Text Only | Print | Product List | Glossary Off
Versions: 1 2 3 4 5 6 7 8 9 10 11 12 13 14 15 16 17 18 19 20 21 22 23 24 25 26 27 28 29 30 31 32 33 34 35 36 37 38 39 40 41 42 43 44 45 46 47 48 49 50

000
ASUS43 KFSD 252010
RWRFSD

WEATHER ROUNDUP FOR SE SOUTH DAKOTA/SW MINNESOTA/NW IOWA
NATIONAL WEATHER SERVICE SIOUX FALLS SD
300 PM CDT TUE JUL 25 2017

NOTE: "FAIR" INDICATES FEW OR NO CLOUDS BELOW 12,000 FEET WITH NO
SIGNIFICANT WEATHER AND OR OBSTRUCTIONS TO VISIBILITY.


SDZ038>040-050-052>070-252100-
SOUTHEAST SOUTH DAKOTA

CITY           SKY/WX    TMP DP  RH WIND       PRES   REMARKS
BROOKINGS      MOSUNNY   92  74  55 S15       29.90S HX 101
CHAMBERLAIN    MOSUNNY   99  69  37 W3        29.84F HX 105
HURON          MOSUNNY   88  71  57 NE12      29.85S
MADISON        FAIR      91  72  52 S14G22    29.89S HX  98
MITCHELL       MOSUNNY  101  68  34 SW16G24   29.82F HX 106
SIOUX FALLS    CLOUDY    95  71  45 S20G25    29.88F HX 102
WINNER         FAIR     107  62  23 SW15G21   29.84S HX 109
YANKTON        SUNNY     99  63  30 S23G30    29.86F HX 101
$$

MNZ071-072-080-081-089-090-097-098-252100-
SOUTHWEST MINNESOTA

CITY           SKY/WX    TMP DP  RH WIND       PRES   REMARKS
FAIRMONT       SUNNY     86  73  65 S17G26    29.96S
JACKSON        SUNNY     88  72  58 S14G21    29.96S
LUVERNE        SUNNY     90  70  51 S16       29.92S HX  95
MARSHALL       PTSUNNY   89  75  63 S12       29.89F HX  99
MONTEVIDEO     MOSUNNY   91  73  55 SW7       29.90R HX 100
PIPESTONE      SUNNY     91  73  55 SW14G24   29.92F HX 100
REDWOOD FALLS  PTSUNNY   88  74  63 S10       29.90F HX  96
TRACY          SUNNY     90  76  63 SW12      29.91F HX 101
WINDOM         SUNNY     90  72  55 S16G23    29.94S HX  96
WORTHINGTON    SUNNY     89  73  59 S20       29.95R HX  97
$$

IAZ001>003-012>014-020>022-031-032-NEZ013-014-SDZ071-252100-
NORTHWEST IOWA

CITY           SKY/WX    TMP DP  RH WIND       PRES   REMARKS
CHEROKEE       MOSUNNY   90  72  55 S14G23    29.97S HX  98
DENISON        SUNNY     90  75  62 S13G24    30.02S HX 100
ESTHERVILLE    SUNNY     87  73  62 S17G30    29.95F
ORANGE CITY    SUNNY     93  72  49 S15G21    29.94F HX 100
SHELDON        SUNNY     90  75  62 S15G21    29.93S HX 100
SIOUX CITY     SUNNY     96  72  45 S14G26    29.94F HX 104
SPENCER        SUNNY     91  72  53 MISG      29.96F HX  98
STORM LAKE     CLOUDY    88  73  62 S20       29.99F HX  96
$$

ABBREVIATIONS USED IN REMARKS
   TC - TEMPERATURE IN CELSIUS
  WCI - WIND CHILL INDEX
   HX - HEAT INDEX
  VSB - VISIBILITY





USA.gov is the U.S. government's official web portal to all federal, state and local government web resources and services.